Content
SEND FEEDBACK

Daily
Averages
Monthly
Summary
United States of America

FARMINGDALE, SOUTH DAKOTA


Home > North America > United States > South Dakota
Elevation: 2990 feet     Latitude: 43 59N     Longitude: 102 54W

WEATHER
 
SELECT A DAY
Number of Records: 200,306;   Date Range: 1/1/95 - 7/26/14
 
SHARE

PRINT THIS DATA

[ ← Previous Day ]
WEATHER ALMANAC - APRIL 28, 2014
[ Next Day → ]
[ °C ]   °F
Weather ElementAverageHighLow
Temperature38.2 °F43 °F (12:52 pm)33.1 °F (12:13 am)
Dewpoint35.3 °F37.9 °F (12:52 pm)30.9 °F (12:13 am)
Humidity89.3 %96 % (12:25 am)76 % (2:52 pm)
Barometer29.63 in29.94 in (11:52 pm)29.44 in (12:25 am)
Wind Speed31.7 mph39.1 mph (6:32 am)
Wind Gust50.6 mph (9:52 am)
Weather ElementAverage
Visibility8.9 mi
Wind DirectionWNW (302.9 °)

Weather ElementTotal
Precipitation0.46 in
Heating Degree Days27 (Base 65)
Averaged from 42 records on April 28, 2014
WEATHER CONDITIONS BREAKOUT
WIND DIRECTION BREAKOUT
WEATHER BY HOUR - APRIL 28, 2014
[ °C ]   °F
Local TimeTemperatureDewpointHumidityBarometerVisibilityWind DirectionWind SpeedGust SpeedPrecipitationEventsConditions
12:13 AM33.1 °F30.9 °F92 %29.45 in2.0 miNNW (330°)36.8 mph48.3 mph0.03 inSnowLight Snow
12:25 AM33.1 °F32.0 °F96 %29.44 in4.0 miNNW (330°)36.8 mph46.0 mph0.04 inSnowLight Snow
12:43 AM34.0 °F32.0 °F92 %29.45 in6.0 miNNW (330°)32.2 mph46.0 mph0.04 inSnowLight Snow
12:52 AM33.8 °F32.0 °F93 %29.47 in9.0 miNNW (340°)33.4 mph41.4 mphSnowLight Snow
12:59 AM34.0 °F33.1 °F96 %29.47 in9.0 miNNW (340°)29.9 mph41.4 mph0.00 inSnowLight Snow
1:33 AM35.1 °F33.1 °F92 %29.49 in10.0 miNNW (340°)27.6 mph36.8 mph0.02 inRainLight Rain
1:52 AM36.0 °F34.0 °F93 %29.54 in10.0 miNorth (350°)21.9 mph31.1 mph0.02 inOvercast
2:52 AM36.0 °F34.0 °F93 %29.55 in8.0 miNorth (350°)25.3 mph31.1 mph0.03 inRainRain
3:27 AM37.0 °F35.1 °F93 %29.51 in8.0 miNNW (340°)26.5 mph36.8 mph0.04 inRainLight Rain
3:52 AM37.4 °F35.6 °F93 %29.51 in7.0 miNNW (340°)27.6 mph34.5 mphRainRain
4:12 AM37.0 °F35.1 °F93 %29.50 in7.0 miNNW (340°)31.1 mph41.4 mph0.02 inRainLight Rain
4:34 AM37.0 °F35.1 °F93 %29.51 in8.0 miNNW (340°)33.4 mph43.7 mph0.03 inSnowLight Snow
4:52 AM37.0 °F35.1 °F93 %29.55 in8.0 miNNW (330°)33.4 mph43.7 mph0.03 inSnowLight Snow
5:27 AM37.9 °F35.1 °F89 %29.51 in10.0 miNNW (330°)34.5 mph47.2 mph0.02 inRainLight Rain
5:41 AM37.9 °F35.1 °F89 %29.51 in10.0 miNNW (330°)33.4 mph44.9 mph0.02 inRainLight Rain
5:52 AM37.9 °F35.1 °F89 %29.57 in10.0 miNNW (330°)33.4 mph42.6 mph0.02 inRainLight Rain
6:32 AM37.9 °F35.1 °F89 %29.51 in10.0 miNNW (330°)39.1 mph47.2 mph0.00 inOvercast
6:52 AM39.0 °F35.1 °F86 %29.56 in10.0 miNNW (330°)36.8 mph46.0 mph0.00 inMostly Cloudy
7:52 AM39.2 °F35.6 °F87 %29.54 in10.0 miNNW (340°)35.7 mph46.0 mphOvercast
8:52 AM41.0 °F35.6 °F81 %29.56 in10.0 miNNW (340°)36.8 mph47.2 mphOvercast
9:52 AM39.9 °F35.1 °F83 %29.61 in8.0 miNNW (340°)39.1 mph50.6 mph0.00 inRainLight Rain
10:49 AM39.2 °F37.4 °F93 %29.59 in8.0 miNorth (350°)32.2 mph47.2 mph0.02 inRainLight Rain
10:52 AM39.9 °F37.0 °F89 %29.64 in10.0 miNorth (350°)31.1 mph44.9 mph0.02 inRainLight Rain
11:52 AM42.8 °F37.4 °F81 %29.61 in10.0 miNNW (340°)35.7 mph50.6 mphOvercast
12:10 PM42.1 °F36.0 °F79 %29.61 in10.0 miNNW (340°)39.1 mph48.3 mph0.00 inRainLight Rain
12:52 PM43.0 °F37.9 °F82 %29.67 in10.0 miNNW (340°)32.2 mph39.1 mph0.00 inRainLight Rain
1:20 PM43.0 °F37.0 °F80 %29.63 in10.0 miNNW (340°)29.9 mph42.6 mph0.00 inRainLight Rain
1:52 PM43.0 °F37.9 °F82 %29.68 in10.0 miNorth (350°)29.9 mph44.9 mph0.00 inRainLight Rain
2:52 PM43.0 °F36.0 °F76 %29.70 in10.0 miNorth (350°)34.5 mph46.0 mph0.00 inRainLight Rain
4:01 PM41.0 °F37.9 °F89 %29.69 in10.0 miNorth (360°)25.3 mph33.4 mph0.00 inRainLight Rain
4:30 PM39.9 °F37.0 °F89 %29.70 in8.0 miNorth (360°)26.5 mph0.01 inRainLight Rain
4:34 PM39.9 °F37.0 °F89 %29.70 in10.0 miNorth (360°)27.6 mph36.8 mph0.01 inRainLight Rain
4:46 PM39.2 °F37.4 °F93 %29.70 in9.0 miNorth (10°)26.5 mph0.01 inRainLight Rain
4:47 PM39.2 °F37.4 °F93 %29.70 in9.0 miNorth (10°)27.6 mph0.01 inRainLight Rain
4:52 PM39.0 °F37.0 °F93 %29.76 in10.0 miNorth (10°)32.2 mph38.0 mph0.01 inRainLight Rain
5:52 PM39.0 °F36.0 °F89 %29.79 in10.0 miNorth (10°)28.8 mph38.0 mph0.00 inRainLight Rain
6:52 PM37.9 °F36.0 °F93 %29.83 in10.0 miNorth (360°)31.1 mph41.4 mph0.00 inOvercast
7:52 PM37.0 °F35.1 °F93 %29.85 in10.0 miNorth (10°)27.6 mph36.8 mphOvercast
8:52 PM37.4 °F33.8 °F87 %29.83 in10.0 miNorth (350°)39.1 mph46.0 mphSnowLight Snow
9:52 PM37.0 °F34.0 °F89 %29.91 in8.0 miNorth (350°)31.1 mph44.9 mph0.00 inSnowLight Snow
10:52 PM36.0 °F34.0 °F93 %29.93 in7.0 miNorth (350°)29.9 mph41.4 mph0.00 inSnowLight Snow
11:52 PM36.0 °F34.0 °F93 %29.94 in10.0 miNorth (350°)29.9 mph39.1 mph0.01 inOvercast
Hourly data recorded from KRAP, located miles away from Farmingdale, South Dakota







STORIES FROM OUR PARTNERS